When you browse on this site, cookies collect data to enhance your experience and personalize the content and advertising you see.
Visit our Privacy Policy to learn more. By continuing to use the site, you agree to this use of cookies and data.
  • In Portugal
  • List of Countries
  • For 7 days
  • Water Temperature
  • Satellite Maps
  • Weather Map
  • Weather Widgets
  • user-avatar
    Login

    Hourly Weather Nieszki

    Today, 19 February, Tuesday

    Time Temperature Precipitation Wind Pressure Humidity
    00:00 0°C° 0 mm 4 mps 749 mmHg 94%
    01:00 0°C° 0 mm 4 mps 749 mmHg 94%
    02:00 0°C° 0 mm 4 mps 748 mmHg 94%
    03:00 0°C° 0 mm 4 mps 748 mmHg 94%
    04:00 0°C° 0 mm 4 mps 747 mmHg 95%
    05:00 0°C° 0 mm 4 mps 747 mmHg 95%
    06:00 -1°C° 0 mm 4 mps 746 mmHg 94%
    07:00 -1°C° 0 mm 4 mps 746 mmHg 94%
    08:00 -1°C° 0 mm 4 mps 745 mmHg 93%
    09:00 0°C° 0 mm 5 mps 745 mmHg 87%
    10:00 +1°C° 0 mm 5 mps 744 mmHg 81%
    11:00 +3°C° 0 mm 5 mps 744 mmHg 75%
    12:00 +5°C° 0 mm 5 mps 743 mmHg 71%
    13:00 +5°C° 0 mm 6 mps 743 mmHg 66%
    14:00 +7°C° 0 mm 6 mps 742 mmHg 61%
    15:00 +7°C° 0 mm 6 mps 742 mmHg 63%
    16:00 +7°C° 0 mm 5 mps 742 mmHg 64%
    17:00 +6°C° 0 mm 5 mps 742 mmHg 66%
    18:00 +6°C° 0.1 mm 5 mps 741 mmHg 72%
    19:00 +5°C° 0.1 mm 5 mps 741 mmHg 78%
    20:00 +4°C° 0.1 mm 4 mps 741 mmHg 84%
    21:00 +4°C° 0.4 mm 4 mps 741 mmHg 85%
    22:00 +4°C° 0.4 mm 4 mps 741 mmHg 86%
    23:00 +3°C° 0.4 mm 4 mps 741 mmHg 87%

    Tomorrow, 20 February, Wednesday

    Time Temperature Precipitation Wind Pressure Humidity
    00:00 +3°C° 0 mm 4 mps 741 mmHg 87%
    01:00 +2°C° 0 mm 5 mps 741 mmHg 88%
    02:00 +2°C° 0 mm 5 mps 741 mmHg 88%
    03:00 +2°C° 0 mm 6 mps 741 mmHg 87%
    04:00 +2°C° 0 mm 6 mps 741 mmHg 86%
    05:00 +2°C° 0 mm 7 mps 740 mmHg 86%
    06:00 +2°C° 0.1 mm 7 mps 741 mmHg 85%
    07:00 +1°C° 0.1 mm 6 mps 741 mmHg 84%
    08:00 +1°C° 0.1 mm 6 mps 741 mmHg 83%
    09:00 +2°C° 0.1 mm 7 mps 741 mmHg 81%
    10:00 +2°C° 0.1 mm 7 mps 741 mmHg 79%
    11:00 +1°C° 0.1 mm 8 mps 742 mmHg 76%
    12:00 +1°C° 0 mm 8 mps 742 mmHg 76%
    13:00 +1°C° 0 mm 8 mps 742 mmHg 77%
    14:00 +1°C° 0 mm 8 mps 742 mmHg 77%
    15:00 +1°C° 0 mm 8 mps 743 mmHg 76%
    16:00 +1°C° 0 mm 8 mps 743 mmHg 76%
    17:00 +1°C° 0 mm 8 mps 743 mmHg 76%
    18:00 0°C° 0 mm 8 mps 744 mmHg 74%
    19:00 -2°C° 0 mm 7 mps 745 mmHg 72%
    20:00 -3°C° 0 mm 6 mps 746 mmHg 71%
    21:00 -3°C° 0 mm 6 mps 746 mmHg 70%
    22:00 -4°C° 0 mm 5 mps 747 mmHg 70%
    23:00 -4°C° 0 mm 5 mps 747 mmHg 70%

    Day after tomorrow, 21 February, Thursday

    Time Temperature Precipitation Wind Pressure Humidity
    00:00 -3°C° 0 mm 4 mps 748 mmHg 70%
    01:00 -3°C° 0 mm 4 mps 748 mmHg 70%
    02:00 -3°C° 0 mm 4 mps 748 mmHg 69%
    03:00 -3°C° 0 mm 4 mps 748 mmHg 69%
    04:00 -3°C° 0 mm 4 mps 748 mmHg 69%
    05:00 -2°C° 0 mm 3 mps 748 mmHg 69%
    06:00 -2°C° 0 mm 3 mps 749 mmHg 69%
    07:00 -2°C° 0 mm 3 mps 749 mmHg 68%
    08:00 -2°C° 0 mm 2 mps 749 mmHg 68%
    09:00 -2°C° 0 mm 2 mps 749 mmHg 65%
    10:00 -1°C° 0 mm 2 mps 749 mmHg 62%
    11:00 -1°C° 0 mm 2 mps 749 mmHg 59%
    12:00 -1°C° 0 mm 2 mps 749 mmHg 58%
    13:00 +2°C° 0 mm 1 mps 749 mmHg 57%
    14:00 +2°C° 0 mm 1 mps 749 mmHg 56%
    15:00 +2°C° 0 mm 1 mps 748 mmHg 57%
    16:00 +2°C° 0 mm 1 mps 748 mmHg 59%
    17:00 +1°C° 0 mm 1 mps 748 mmHg 60%
    18:00 -1°C° 0 mm 2 mps 748 mmHg 58%
    19:00 -1°C° 0 mm 3 mps 749 mmHg 56%
    20:00 -2°C° 0 mm 3 mps 749 mmHg 54%
    21:00 -3°C° 0.1 mm 4 mps 749 mmHg 56%
    22:00 -4°C° 0.1 mm 4 mps 750 mmHg 58%
    23:00 -4°C° 0.1 mm 4 mps 750 mmHg 60%

    22 February, Friday

    Time Temperature Precipitation Wind Pressure Humidity
    00:00 -4°C° 0 mm 4 mps 751 mmHg 60%
    01:00 -4°C° 0 mm 4 mps 752 mmHg 59%
    02:00 -5°C° 0 mm 4 mps 753 mmHg 59%
    03:00 -6°C° 0 mm 5 mps 754 mmHg 60%
    04:00 -7°C° 0 mm 5 mps 754 mmHg 61%
    05:00 -7°C° 0 mm 5 mps 755 mmHg 62%
    06:00 -8°C° 0 mm 5 mps 756 mmHg 62%
    07:00 -8°C° 0 mm 5 mps 757 mmHg 61%
    08:00 -10°C° 0 mm 5 mps 758 mmHg 61%
    09:00 -8°C° 0 mm 5 mps 759 mmHg 57%
    10:00 -8°C° 0 mm 5 mps 760 mmHg 52%
    11:00 -7°C° 0 mm 5 mps 760 mmHg 48%
    12:00 -5°C° 0 mm 4 mps 761 mmHg 44%
    13:00 -5°C° 0 mm 4 mps 761 mmHg 41%
    14:00 -4°C° 0 mm 3 mps 762 mmHg 37%
    15:00 -4°C° 0 mm 3 mps 762 mmHg 38%
    16:00 -4°C° 0 mm 3 mps 762 mmHg 38%
    17:00 -4°C° 0 mm 3 mps 762 mmHg 39%
    18:00 -5°C° 0 mm 3 mps 762 mmHg 41%
    19:00 -5°C° 0 mm 3 mps 763 mmHg 42%
    20:00 -6°C° 0 mm 3 mps 763 mmHg 44%
    21:00 -6°C° 0 mm 3 mps 763 mmHg 44%
    22:00 -6°C° 0 mm 3 mps 763 mmHg 44%
    23:00 -6°C° 0 mm 3 mps 763 mmHg 44%

    23 February, Saturday

    Time Temperature Precipitation Wind Pressure Humidity
    00:00 -7°C° 0 mm 3 mps 763 mmHg 46%
    01:00 -7°C° 0 mm 3 mps 763 mmHg 49%
    02:00 -7°C° 0 mm 3 mps 763 mmHg 51%
    03:00 -7°C° 0 mm 3 mps 763 mmHg 53%
    04:00 -7°C° 0 mm 3 mps 763 mmHg 56%
    05:00 -8°C° 0 mm 3 mps 763 mmHg 58%
    06:00 -7°C° 0 mm 2 mps 763 mmHg 60%
    07:00 -7°C° 0 mm 2 mps 763 mmHg 62%
    08:00 -7°C° 0 mm 2 mps 763 mmHg 63%
    09:00 -6°C° 0 mm 2 mps 763 mmHg 59%
    10:00 -5°C° 0 mm 2 mps 763 mmHg 55%
    11:00 -2°C° 0 mm 1 mps 763 mmHg 51%
    12:00 -2°C° 0 mm 1 mps 763 mmHg 48%
    13:00 -1°C° 0 mm 1 mps 763 mmHg 45%
    14:00 0°C° 0 mm 1 mps 763 mmHg 41%
    15:00 -3°C° 0 mm 2 mps 762 mmHg 42%
    16:00 -3°C° 0 mm 2 mps 762 mmHg 44%
    17:00 -3°C° 0 mm 2 mps 762 mmHg 45%
    18:00 -3°C° 0.1 mm 2 mps 762 mmHg 55%
    19:00 -2°C° 0.1 mm 1 mps 762 mmHg 65%
    20:00 -2°C° 0.1 mm 1 mps 762 mmHg 75%
    21:00 -2°C° 0 mm 1 mps 762 mmHg 76%
    22:00 -2°C° 0 mm 1 mps 762 mmHg 76%
    23:00 -2°C° 0 mm 1 mps 762 mmHg 77%

    24 February, Sunday

    Time Temperature Precipitation Wind Pressure Humidity
    00:00 -2°C° 0 mm 1 mps 762 mmHg 78%
    01:00 -2°C° 0 mm 1 mps 762 mmHg 79%
    02:00 -3°C° 0 mm 1 mps 762 mmHg 80%
    03:00 -3°C° 0 mm 1 mps 762 mmHg 81%
    04:00 -3°C° 0 mm 1 mps 762 mmHg 82%
    05:00 -3°C° 0 mm 1 mps 762 mmHg 83%
    06:00 -3°C° 0 mm 1 mps 763 mmHg 83%
    07:00 -3°C° 0 mm 1 mps 763 mmHg 83%
    08:00 -3°C° 0 mm 1 mps 763 mmHg 84%
    09:00 -2°C° 0 mm 1 mps 763 mmHg 79%
    10:00 -3°C° 0 mm 2 mps 763 mmHg 74%
    11:00 -1°C° 0 mm 2 mps 764 mmHg 68%
    12:00 -1°C° 0 mm 2 mps 764 mmHg 66%
    13:00 +1°C° 0 mm 2 mps 763 mmHg 64%
    14:00 +2°C° 0 mm 2 mps 763 mmHg 62%
    15:00 +2°C° 0 mm 2 mps 763 mmHg 66%
    16:00 +2°C° 0 mm 2 mps 763 mmHg 70%
    17:00 +1°C° 0 mm 2 mps 762 mmHg 73%
    18:00 +1°C° 0 mm 2 mps 762 mmHg 77%
    19:00 -1°C° 0 mm 2 mps 762 mmHg 81%
    20:00 -2°C° 0 mm 2 mps 762 mmHg 85%
    21:00 -1°C° 0 mm 2 mps 762 mmHg 85%
    22:00 -1°C° 0 mm 2 mps 762 mmHg 85%
    23:00 -1°C° 0 mm 3 mps 762 mmHg 84%
    Show more